User: anonymous   Login
Location: Fremont
(37.5480°N, 121.9880°W)
Time: 03:32:42
(UTC-07:00)
Language:

Cosmos 1844 Rocket - Orbit

View from above orbital plane
View from above orbital plane
View from above satellite
View from above satellite

Ground track
Ground track

The orbit data is extracted from the following two-line orbital elements,

1 17974U 87041B   17178.65851543 -.00000199 +00000-0 -74798-4 0  9999
2 17974 071.0082 247.7815 0013531 008.4057 145.8895 14.17231046558163
Epoch (UTC): 27 June 2017 15:48:15
Eccentricity: 0.0013531
inclination: 71.0082°
perigee height: 825 km
apogee height: 844 km
right ascension of ascending node: 247.7815°
argument of perigee: 8.4057°
revolutions per day: 14.17231046
mean anomaly at epoch: 145.8895°
orbit number at epoch: 55816

The dashed part of the orbit path shows where the satellite is in the earth's shadow,  

DLR